When you browse on this site, cookies collect data to enhance your experience and personalize the content and advertising you see.
Visit our Privacy Policy to learn more. By continuing to use the site, you agree to this use of cookies and data.
  • In Spain
  • List of Countries
  • For 7 days
  • Water Temperature
  • Weather Map
  • Weather Widgets
  • user-avatar
    Login

    Hourly Weather Manika

    Today, 18 February, Tuesday

    Time Temperature Precipitation Wind Pressure Humidity
    00:00 +21°C° 0 mm 1 mps 678 mmHg 95%
    01:00 +21°C° 0 mm 1 mps 678 mmHg 95%
    02:00 +20°C° 0 mm 1 mps 678 mmHg 94%
    03:00 +20°C° 0 mm 1 mps 678 mmHg 94%
    04:00 +20°C° 0 mm 1 mps 678 mmHg 93%
    05:00 +19°C° 0 mm 1 mps 678 mmHg 92%
    06:00 +21°C° 0 mm 1 mps 679 mmHg 84%
    07:00 +23°C° 0 mm 1 mps 679 mmHg 77%
    08:00 +25°C° 0 mm 1 mps 680 mmHg 67%
    09:00 +27°C° 0 mm 1 mps 680 mmHg 60%
    10:00 +28°C° 0 mm 2 mps 680 mmHg 54%
    11:00 +29°C° 0 mm 3 mps 680 mmHg 47%
    12:00 +30°C° 0 mm 3 mps 680 mmHg 48%
    13:00 +30°C° 0 mm 3 mps 680 mmHg 49%
    14:00 +30°C° 0 mm 3 mps 679 mmHg 49%
    15:00 +29°C° 0 mm 3 mps 679 mmHg 55%
    16:00 +28°C° 0 mm 3 mps 678 mmHg 61%
    17:00 +28°C° 0 mm 3 mps 678 mmHg 66%
    18:00 +26°C° 0 mm 2 mps 678 mmHg 75%
    19:00 +24°C° 0 mm 2 mps 679 mmHg 84%
    20:00 +21°C° 0 mm 2 mps 679 mmHg 92%
    21:00 +20°C° 0 mm 2 mps 679 mmHg 93%
    22:00 +21°C° 0 mm 1 mps 679 mmHg 95%
    23:00 +21°C° 0 mm 1 mps 679 mmHg 96%

    Tomorrow, 19 February, Wednesday

    Time Temperature Precipitation Wind Pressure Humidity
    00:00 +20°C° 0 mm 1 mps 679 mmHg 95%
    01:00 +20°C° 0 mm 1 mps 679 mmHg 95%
    02:00 +20°C° 0 mm 1 mps 679 mmHg 95%
    03:00 +19°C° 0 mm 1 mps 679 mmHg 95%
    04:00 +19°C° 0 mm 1 mps 678 mmHg 94%
    05:00 +19°C° 0 mm 1 mps 678 mmHg 94%
    06:00 +21°C° 0 mm 1 mps 679 mmHg 88%
    07:00 +22°C° 0 mm 1 mps 680 mmHg 83%
    08:00 +24°C° 0 mm 1 mps 680 mmHg 78%
    09:00 +26°C° 0 mm 1 mps 680 mmHg 70%
    10:00 +28°C° 0 mm 2 mps 681 mmHg 63%
    11:00 +29°C° 0 mm 2 mps 681 mmHg 56%
    12:00 +30°C° 0 mm 2 mps 680 mmHg 54%
    13:00 +30°C° 0 mm 2 mps 680 mmHg 52%
    14:00 +31°C° 0 mm 2 mps 679 mmHg 50%
    15:00 +29°C° 0.3 mm 2 mps 679 mmHg 58%
    16:00 +28°C° 0.3 mm 3 mps 678 mmHg 67%
    17:00 +27°C° 0.3 mm 3 mps 677 mmHg 75%
    18:00 +25°C° 0.1 mm 2 mps 678 mmHg 81%
    19:00 +23°C° 0.1 mm 2 mps 678 mmHg 87%
    20:00 +22°C° 0.1 mm 1 mps 678 mmHg 94%
    21:00 +21°C° 0 mm 1 mps 678 mmHg 94%
    22:00 +21°C° 0 mm 1 mps 678 mmHg 94%
    23:00 +21°C° 0 mm 1 mps 678 mmHg 94%

    Day after tomorrow, 20 February, Thursday

    Time Temperature Precipitation Wind Pressure Humidity
    00:00 +18°C° 0 mm 0 mps 678 mmHg 94%
    01:00 +18°C° 0 mm 0 mps 678 mmHg 94%
    02:00 +18°C° 0 mm 0 mps 677 mmHg 94%
    03:00 +17°C° 0 mm 0 mps 677 mmHg 94%
    04:00 +17°C° 0 mm 0 mps 677 mmHg 94%
    05:00 +17°C° 0 mm 0 mps 677 mmHg 94%
    06:00 +19°C° 0 mm 0 mps 678 mmHg 89%
    07:00 +21°C° 0 mm 0 mps 678 mmHg 84%
    08:00 +22°C° 0 mm 0 mps 679 mmHg 78%
    09:00 +25°C° 0 mm 0 mps 679 mmHg 71%
    10:00 +27°C° 0 mm 0 mps 679 mmHg 63%
    11:00 +31°C° 0 mm 1 mps 679 mmHg 55%
    12:00 +31°C° 0 mm 1 mps 679 mmHg 53%
    13:00 +31°C° 0 mm 1 mps 678 mmHg 52%
    14:00 +31°C° 0 mm 1 mps 678 mmHg 50%
    15:00 +30°C° 0.1 mm 1 mps 677 mmHg 55%
    16:00 +29°C° 0.1 mm 2 mps 677 mmHg 60%
    17:00 +28°C° 0.1 mm 2 mps 676 mmHg 66%
    18:00 +26°C° 0 mm 2 mps 676 mmHg 74%
    19:00 +24°C° 0 mm 1 mps 676 mmHg 83%
    20:00 +22°C° 0 mm 1 mps 677 mmHg 91%
    21:00 +22°C° 0 mm 1 mps 677 mmHg 92%
    22:00 +22°C° 0 mm 1 mps 677 mmHg 93%
    23:00 +21°C° 0 mm 1 mps 677 mmHg 95%

    21 February, Friday

    Time Temperature Precipitation Wind Pressure Humidity
    00:00 +21°C° 0 mm 1 mps 677 mmHg 94%
    01:00 +21°C° 0 mm 1 mps 677 mmHg 94%
    02:00 +20°C° 0 mm 1 mps 676 mmHg 94%
    03:00 +20°C° 0 mm 1 mps 676 mmHg 94%
    04:00 +20°C° 0 mm 1 mps 676 mmHg 94%
    05:00 +20°C° 0 mm 1 mps 676 mmHg 94%
    06:00 +22°C° 0 mm 1 mps 677 mmHg 88%
    07:00 +22°C° 0 mm 0 mps 678 mmHg 82%
    08:00 +23°C° 0 mm 0 mps 678 mmHg 76%
    15:00 +30°C° 0 mm 2 mps 677 mmHg 55%
    16:00 +30°C° 0 mm 1 mps 676 mmHg 59%
    17:00 +29°C° 0 mm 1 mps 676 mmHg 64%
    18:00 +27°C° 0 mm 2 mps 676 mmHg 73%
    19:00 +25°C° 0 mm 2 mps 676 mmHg 82%
    20:00 +23°C° 0 mm 2 mps 676 mmHg 90%
    21:00 +23°C° 0 mm 2 mps 677 mmHg 92%
    22:00 +21°C° 0 mm 2 mps 677 mmHg 93%
    23:00 +22°C° 0 mm 1 mps 677 mmHg 94%

    22 February, Saturday

    Time Temperature Precipitation Wind Pressure Humidity
    00:00 +21°C° 0 mm 1 mps 677 mmHg 94%
    01:00 +21°C° 0 mm 1 mps 676 mmHg 94%
    02:00 +21°C° 0 mm 1 mps 676 mmHg 94%
    03:00 +21°C° 0 mm 1 mps 676 mmHg 94%
    04:00 +21°C° 0 mm 1 mps 676 mmHg 93%
    05:00 +21°C° 0 mm 1 mps 676 mmHg 93%
    06:00 +22°C° 0 mm 1 mps 677 mmHg 87%
    07:00 +22°C° 0 mm 0 mps 677 mmHg 80%
    08:00 +24°C° 0 mm 0 mps 678 mmHg 74%
    09:00 +26°C° 0 mm 0 mps 678 mmHg 67%
    10:00 +28°C° 0 mm 0 mps 678 mmHg 59%
    11:00 +31°C° 0 mm 0 mps 679 mmHg 52%
    12:00 +32°C° 0 mm 1 mps 678 mmHg 51%
    13:00 +32°C° 0 mm 1 mps 677 mmHg 50%
    14:00 +32°C° 0 mm 1 mps 676 mmHg 50%
    15:00 +31°C° 0 mm 1 mps 676 mmHg 54%
    16:00 +31°C° 0 mm 1 mps 675 mmHg 58%
    17:00 +30°C° 0 mm 1 mps 675 mmHg 62%
    18:00 +28°C° 0 mm 2 mps 675 mmHg 70%
    19:00 +26°C° 0 mm 2 mps 675 mmHg 78%
    20:00 +24°C° 0 mm 2 mps 675 mmHg 86%
    21:00 +23°C° 0 mm 2 mps 675 mmHg 88%
    22:00 +23°C° 0 mm 2 mps 676 mmHg 91%
    23:00 +21°C° 0 mm 2 mps 676 mmHg 93%

    23 February, Sunday

    Time Temperature Precipitation Wind Pressure Humidity
    00:00 +22°C° 0 mm 1 mps 675 mmHg 94%
    01:00 +22°C° 0 mm 1 mps 675 mmHg 94%
    02:00 +22°C° 0 mm 1 mps 674 mmHg 95%
    03:00 +22°C° 0 mm 1 mps 675 mmHg 95%
    04:00 +21°C° 0 mm 1 mps 675 mmHg 95%
    05:00 +21°C° 0 mm 1 mps 675 mmHg 94%
    06:00 +23°C° 0 mm 1 mps 675 mmHg 88%
    07:00 +25°C° 0 mm 1 mps 676 mmHg 81%
    08:00 +27°C° 0 mm 1 mps 677 mmHg 75%
    09:00 +29°C° 0 mm 1 mps 677 mmHg 68%
    10:00 +31°C° 0 mm 1 mps 677 mmHg 61%
    11:00 +33°C° 0 mm 1 mps 677 mmHg 54%
    12:00 +32°C° 0.1 mm 1 mps 676 mmHg 52%
    13:00 +32°C° 0.1 mm 1 mps 676 mmHg 51%
    14:00 +32°C° 0.1 mm 2 mps 675 mmHg 50%
    15:00 +30°C° 0.3 mm 2 mps 675 mmHg 60%
    16:00 +29°C° 0.3 mm 2 mps 674 mmHg 70%
    17:00 +27°C° 0.3 mm 2 mps 674 mmHg 79%
    18:00 +26°C° 0.5 mm 2 mps 674 mmHg 83%
    19:00 +25°C° 0.5 mm 2 mps 675 mmHg 86%
    20:00 +24°C° 0.5 mm 2 mps 675 mmHg 89%
    21:00 +23°C° 0.3 mm 2 mps 676 mmHg 91%
    22:00 +23°C° 0.3 mm 2 mps 676 mmHg 92%
    23:00 +23°C° 0.3 mm 1 mps 677 mmHg 94%
    Show more